Weather History for KCQC - December, 2012

Change the Weather History Date:

Sunday, December 30, 2012

  Actual Average (KSAF) Record (KSAF)
Temperature  
Mean Temperature 28 °F -  
Max Temperature 37 °F 48 °F 57 °F (1998)
Min Temperature 19 °F 11 °F 10 °F (2014)
Degree Days  
Heating Degree Days 37    
Moisture  
Dew Point 17 °F    
Average Humidity 59    
Maximum Humidity 92    
Minimum Humidity 41    
Precipitation  
Precipitation 0.00 in - - ()
Sea Level Pressure  
Sea Level Pressure 29.97 in    
Wind  
Wind Speed 8 mph (SW)    
Max Wind Speed 20 mph    
Max Gust Speed -    
Visibility 10 miles    
Events      
Averages and records for this station are not official NWS values.
T = Trace of Precipitation, MM = Missing Value Source: NWS Daily Summary

Daily Weather History Graph

Daily Weather History Graph

Search for Another Location

Airport or City:

Trip Planner

Search our weather history database for the weather conditions in past years. The results will help you decide how hot, cold, wet, or windy it might be!

Date:

Astronomy

Dec. 30, 2012 Rise Set
Actual Time 7:10 AM MST 5:00 PM MST
Civil Twilight 6:42 AM MST 5:28 PM MST
Nautical Twilight 6:10 AM MST 6:00 PM MST
Astronomical Twilight 5:39 AM MST 6:31 PM MST
Moon 7:28 PM MST (12/30) 8:26 AM MST (12/30)
Length of Visible Light 10h 46m
Length of Day
9h 50m
Waning Gibbous, 95% of the Moon is Illuminated
Dec 30
Waning Gibbous
Jan 4
Last Quarter
Jan 11
New
Jan 18
First Quarter
Jan 26
Full

Hourly Weather History & Observations

Time (MST) Temp. Windchill Dew Point Humidity Pressure Visibility Wind Dir Wind Speed Gust Speed Precip Events Conditions
12:53 AM 21.9 °F 15.7 °F 8.1 °F 55% 30.10 in 10.0 mi SW 4.6 mph - N/A   Clear
1:53 AM 19.9 °F 10.1 °F 9.0 °F 62% 30.11 in 10.0 mi West 8.1 mph - N/A   Clear
2:53 AM 23.0 °F 15.8 °F 9.0 °F 55% 30.08 in 10.0 mi West 5.8 mph - N/A   Overcast
3:53 AM 24.1 °F 16.0 °F 9.0 °F 53% 30.05 in 10.0 mi WNW 6.9 mph - N/A   Clear
4:53 AM 24.1 °F 16.0 °F 10.0 °F 55% 30.06 in 10.0 mi WNW 6.9 mph - N/A   Partly Cloudy
5:53 AM 25.0 °F 18.1 °F 12.0 °F 58% 30.07 in 10.0 mi West 5.8 mph - N/A   Scattered Clouds
6:53 AM 26.1 °F - 12.0 °F 55% 30.07 in 10.0 mi Calm Calm - N/A   Mostly Cloudy
7:53 AM 27.0 °F 21.6 °F 10.9 °F 51% 30.07 in 10.0 mi SSW 4.6 mph - N/A   Scattered Clouds
8:53 AM 28.0 °F 22.8 °F 14.0 °F 56% 30.07 in 10.0 mi SW 4.6 mph - N/A   Mostly Cloudy
9:53 AM 32.0 °F 22.5 °F 14.0 °F 48% 30.06 in 10.0 mi SSW 12.7 mph - N/A   Overcast
10:53 AM 32.0 °F 20.1 °F 14.0 °F 48% 30.06 in 10.0 mi SSW 19.6 mph - N/A   Overcast
11:53 AM 36.0 °F 25.6 °F 16.0 °F 44% 30.00 in 10.0 mi SW 18.4 mph - N/A   Mostly Cloudy
12:53 PM 37.0 °F 28.9 °F 16.0 °F 42% 29.96 in 10.0 mi SW 12.7 mph - N/A   Overcast
1:53 PM 37.9 °F 30.5 °F 17.1 °F 43% 29.96 in 10.0 mi SSW 11.5 mph - N/A   Scattered Clouds
2:53 PM 37.9 °F 33.5 °F 16.0 °F 41% 29.93 in 10.0 mi SW 5.8 mph - N/A   Mostly Cloudy
3:53 PM 36.0 °F 28.5 °F 17.1 °F 46% 29.91 in 10.0 mi SSW 10.4 mph - N/A   Mostly Cloudy
4:53 PM 35.1 °F 32.2 °F 18.0 °F 50% 29.90 in 10.0 mi SSW 3.5 mph - N/A   Overcast
5:53 PM 33.1 °F 24.9 °F 18.0 °F 54% 29.91 in 10.0 mi South 10.4 mph - N/A   Overcast
6:53 PM 32.0 °F 23.0 °F 19.9 °F 61% 29.92 in 10.0 mi SSW 11.5 mph - N/A   Mostly Cloudy
7:53 PM 30.9 °F 25.2 °F 21.9 °F 69% 29.91 in 10.0 mi South 5.8 mph - N/A   Scattered Clouds
8:43 PM 32.0 °F 23.0 °F 21.2 °F 64% 29.89 in 10.0 mi South 11.5 mph - N/A   Overcast
8:53 PM 32.0 °F 23.6 °F 23.0 °F 69% 29.91 in 10.0 mi South 10.4 mph - N/A   Overcast
9:51 PM 30.2 °F 21.3 °F 26.6 °F 86% 29.87 in 10.0 mi South 10.4 mph - N/A   Overcast
9:53 PM 30.9 °F 21.7 °F 26.1 °F 82% 29.86 in 10.0 mi South 11.5 mph - N/A   Overcast
10:53 PM 28.0 °F 20.0 °F 26.1 °F 92% 29.86 in 10.0 mi SSE 8.1 mph - N/A   Clear
11:32 PM 28.4 °F - 21.2 °F 74% 29.84 in 10.0 mi Calm Calm - N/A   Overcast
11:53 PM 27.0 °F 18.7 °F 21.0 °F 78% 29.83 in 10.0 mi East 8.1 mph - N/A   Overcast